Simultaneous Nadir Overpasses (SNOs) Predictions

Prediction of SNOs between LANDSAT-8 and NOAA-19 Satellite Orbit:

Table of predicted SNOs for the next 14.0 days since TLE Epoch: 3/2/2024
Index Date (LANDSAT-8) Time (LANDSAT-8) Lat,Lon (LANDSAT-8) SZA (LANDSAT-8 ) Date (NOAA-19) Time (NOAA-19) Lat,Lon (NOAA-19) SZA (NOAA-19 ) Distance(km) Time Diff (sec)
1 03/03/2024 23:41:52 -80.80, 39.76 91.50 03/03/2024 23:41:12 -80.81, 39.82 91.50 1.51 40
2 03/04/2024 00:31:17 80.84,-152.16 88.56 03/04/2024 00:32:13 80.83,-152.31 88.56 2.77 56
3 03/06/2024 06:04:59 -80.80, -56.03 92.37 03/06/2024 06:04:17 -80.80, -56.08 92.38 0.99 42
4 03/06/2024 06:54:24 80.83, 112.03 87.69 03/06/2024 06:55:18 80.83, 111.92 87.70 2.03 54
5 03/08/2024 12:28:06 -80.82,-151.60 93.20 03/08/2024 12:27:22 -80.81,-151.67 93.23 1.71 44
6 03/08/2024 13:17:32 80.82, 16.10 86.80 03/08/2024 13:18:24 80.82, 16.08 86.82 0.38 52
7 03/10/2024 18:51:14 -80.80, 112.38 94.11 03/10/2024 18:50:28 -80.80, 112.32 94.13 1.11 46
8 03/10/2024 19:40:39 80.83, -79.59 85.94 03/10/2024 19:41:29 80.83, -79.46 85.97 2.30 50
9 03/13/2024 01:14:21 -80.80, 16.59 94.99 03/13/2024 01:13:33 -80.80, 16.63 95.00 0.63 48
10 03/13/2024 02:03:46 80.83,-175.40 85.06 03/13/2024 02:04:35 80.82,-175.45 85.07 1.12 49
11 03/15/2024 07:37:28 -80.79, -79.31 95.88 03/15/2024 07:36:39 -80.79, -79.48 95.92 3.01 49



Historial Predications of SNOs between LANDSAT-8 and NOAA-19
